OneWeb SL0247

operational
NORAD ID: 48777 Int'l Des: 2021-045 Owner: ONEWEBN Country: UK Constellation: oneweb
LEOCIRCULARPOLARONEWEB_TYPE

About OneWeb SL0247

Description loading...

Live Position

Loading 3D Globe...

Upcoming Passes

Altitude History

Altitude vs Time

uPlot chart will show altitude changes over time

Two-Line Element Set

1 48777U 21045L 25258.58034474 -.00000083 00000-0 -25388-3 0 9994
2 48777 87.9026 314.0215 0000954 83.5928 276.5311 13.15550697208306
Epoch: Sep 15, 2025 • Age: 12 hours

Current Status

Altitude 1220.9 km
Velocity 7.24 km/s
Sub-Earth Point -47.70°S, 110.44°E
Launch Date May 28, 2021
Age 4.3 years
Type internet

Technical Details

Classification Payload
Mass 148.00 kg
Dry Mass 140.00 kg
Total Mass 148.00 kg
Length 1.30 m
Diameter 1.00 m
Span 5.00 m
Shape Trapezoid+2 pan
Manufacturer ONEWUS
Bus Type ARROW
Phase Status In Orbit
Owner/State ONEWEBN/UK

Large Constellations

Loading constellations...